USA 40 R/B DEB, 23354

Orbit data source: Space-Track

USA 40 R/B DEB, 23354 is space debris originally from a launch on Tue, 08 Aug 1989 UTC launched from the Air Force Eastern Test Range (AFETR). Debris objects in space refer to the collection of defunct objects orbiting the Earth. Examples of debris include non-operational satellites, rocket bodies, and fragments generated from explosions, collisions, or faulty payload assembly.

Loading next visibility...
Identifier
23354, 1989-061AA
Orbit
Active
Country
Flag of USUS
Related business
Manufacturer
Unknown
Mission
Spacecraft
Bus & Motor
Unknown
Mass
Unknown
Launch date (UTC)
1989-08-08 (37 years ago)
Launch vehicle
Unknown
Launch site
Air Force Eastern Test Range (AFETR)
Object type
Payload
Rocket body
Debris
Shape & HBR
Unknown shape, 0.1 m
Radar Cross Section
Medium (>0.1 m² and <1 m²)

Expand to show TLE details & history
Last TLE update: 3 days ago

TLE from 3 days ago
0 USA 40 R/B DEB
1 23354U 89061AA  26170.99521496  .00010124  00000-0  10133-1 0  9999
2 23354  56.9837  24.5936 3020973 158.8578 217.0084  8.78030280230870
Epoch: 2026-06-19T23:53Z
TLE epoch observation values (Epoch: 2026-06-19T23:53:06.572Z)
Latitude
-0.00001°
Longitude
118.10001°
Altitude
6,178.185 km
Speed
4.831 km/s
True Right ascension
01h 38m 22s
True Declination
0° 00' 00"
Sunlit
Object was in daylight at epoch
Visualization orbit readout
Latitude
Unknown
Longitude
Unknown
Altitude
Unknown
Speed
Unknown
Apparent Right ascension
Unknown
Apparent Declination
Unknown
Sunlit
N/A
Visualization observer readout
Local Sidereal Time
23:21:10
Azimuth
Unknown
Elevation
Unknown
Doppler factor
Unknown
Orbital elements
Apogee altitude
6,544.772 km
Perigee altitude
548.33 km
Semi-major axis
9,924.688 km
Eccentricity
0.3021
Inclination
56.9837°
RAAN
24.5936°
Arg. of periapsis
158.8578°
True anomaly
201.21414°
Mean anomaly
217.0084°
Eccentric anomaly
208.69704°
Mean motion
2.19517 °/min
Orbital period
164 mins
BSTAR
0.010133
Loading maneuver chart data...
Computing Atmospheric mass density...
Loading historical data...
Loading historical data...
Loading historical data...
Loading historical data...
Loading historical data...
Loading historical data...
Loading historical data...

Documentation

Showing up to 5 results
|